Asheville, NC

6:15 PM EST on December 06, 2019 (GMT -0500)
Asheville Regional

Weather History for KAVL - September, 2019

Change the Weather History Date:

Wednesday, September 25, 2019

  Actual Average Record
Temperature  
Mean Temperature 70 °F 63 °F  
Max Temperature 85 °F 74 °F 89 °F (1895)
Min Temperature 54 °F 52 °F 36 °F (1983)
Degree Days  
Heating Degree Days 0 3  
Month to date heating degree days 2 32  
Since 1 July heating degree days 2 34  
Cooling Degree Days 5 2  
Month to date cooling degree days 215 90  
Year to date cooling degree days 1221 847  
Growing Degree Days 19 (Base 50)    
Moisture  
Dew Point 55 °F    
Average Humidity 65    
Maximum Humidity 93    
Minimum Humidity 37    
Precipitation  
Precipitation 0.00 in 0.12 in 1.93 in (1956)
Month to date precipitation 0.40 3.22  
Year to date precipitation 42.11 34.83  
Snow  
Snow 0.00 in 0.00 in 0.00 in ()
Month to date snowfall 0.0 0.0  
Since 1 July snowfall 0.0 0.0  
Since 1 September snowfall 0.0 0.0  
Snow Depth 0.00 in    
Sea Level Pressure  
Sea Level Pressure 29.92 in    
Wind  
Wind Speed 2 mph (SSW)    
Max Wind Speed 10 mph    
Max Gust Speed 13 mph    
Visibility 10 miles    
Events      
T = Trace of Precipitation, MM = Missing Value Source: NWS Daily Summary

Daily Weather History Graph

Daily Weather History Graph

Search for Another Location

Airport or City:

Astronomy

Sep. 25, 2019 Rise Set
Actual Time 7:20 AM EDT 7:22 PM EDT
Civil Twilight 6:54 AM EDT 7:48 PM EDT
Nautical Twilight 6:25 AM EDT 8:17 PM EDT
Astronomical Twilight 5:55 AM EDT 8:47 PM EDT
Moon 3:23 AM EDT (9/25) 5:44 PM EDT (9/25)
Length of Visible Light 12h 53m
Length of Day
12h 02m
Waning Crescent, 14% of the Moon is Illuminated
Sep 25
Waning Crescent
Sep 28
New
Oct 5
First Quarter
Oct 13
Full
Oct 21
Last Quarter

Hourly Weather History & Observations

Time (EDT) Temp. Heat Index Dew Point Humidity Pressure Visibility Wind Dir Wind Speed Gust Speed Precip Events Conditions
12:54 AM 63.0 °F - 55.9 °F 78% 29.91 in 10.0 mi Calm Calm - N/A   Partly Cloudy
1:54 AM 61.0 °F - 55.9 °F 83% 29.91 in 10.0 mi Calm Calm - N/A   Scattered Clouds
2:54 AM 60.1 °F - 55.0 °F 83% 29.90 in 10.0 mi Calm Calm - N/A   Clear
3:54 AM 57.9 °F - 55.0 °F 90% 29.91 in 10.0 mi Calm Calm - N/A   Clear
4:54 AM 57.0 °F - 54.0 °F 89% 29.92 in 10.0 mi Calm Calm - N/A   Clear
5:54 AM 55.9 °F - 53.1 °F 90% 29.94 in 10.0 mi Calm Calm - N/A   Clear
6:54 AM 55.9 °F - 53.1 °F 90% 29.95 in 10.0 mi Calm Calm - N/A   Clear
7:54 AM 55.9 °F - 53.1 °F 90% 29.97 in 10.0 mi Calm Calm - N/A   Clear
8:54 AM 59.0 °F - 55.0 °F 87% 29.98 in 10.0 mi Calm Calm - N/A   Clear
9:54 AM 66.0 °F - 55.9 °F 70% 29.97 in 10.0 mi Calm Calm - N/A   Clear
10:54 AM 71.1 °F - 55.0 °F 57% 29.96 in 10.0 mi Calm Calm - N/A   Clear
11:54 AM 75.0 °F - 50.0 °F 41% 29.95 in 10.0 mi Calm Calm - N/A   Clear
12:54 PM 78.1 °F - 54.0 °F 43% 29.93 in 10.0 mi Variable 4.6 mph - N/A   Clear
1:54 PM 80.1 °F 79.9 °F 53.1 °F 39% 29.91 in 10.0 mi Variable 3.5 mph - N/A   Clear
2:54 PM 82.0 °F 81.2 °F 53.1 °F 37% 29.88 in 10.0 mi Variable 3.5 mph - N/A   Clear
3:54 PM 82.9 °F 81.8 °F 53.1 °F 36% 29.87 in 10.0 mi Calm Calm - N/A   Clear
4:54 PM 82.9 °F 81.9 °F 54.0 °F 37% 29.87 in 10.0 mi SSE 6.9 mph - N/A   Clear
5:54 PM 82.0 °F 81.6 °F 55.9 °F 41% 29.89 in 10.0 mi South 6.9 mph - N/A   Clear
6:54 PM 81.0 °F 80.8 °F 55.9 °F 42% 29.89 in 10.0 mi SW 3.5 mph - N/A   Clear
7:54 PM 75.0 °F - 59.0 °F 57% 29.91 in 10.0 mi South 4.6 mph - N/A   Clear
9:54 PM 68.0 °F - 61.0 °F 78% 29.94 in 10.0 mi Calm Calm - N/A   Clear
10:54 PM 66.0 °F - 60.1 °F 81% 29.94 in 10.0 mi Calm Calm - N/A   Clear
11:54 PM 64.9 °F - 60.1 °F 84% 29.94 in 10.0 mi WNW 3.5 mph - N/A   Clear